This is the latest recevied weather packets stored in our database for station/object EA3IK-1. If no packets are shown the sender has not sent any weather packets the latest 10 day(s).
| Time | Temp. | Humidity | Pressure | Rain* | Wind** | Luminosity | Snow |
|---|---|---|---|---|---|---|---|
| 1777254594 | 16.67° C | 68% | 1017.6 hPa | 0 mm | - | - | - |
| 1777253693 | 16.67° C | 68% | 1017.7 hPa | 0 mm | - | - | - |
| 1777252792 | 16.67° C | 69% | 1017.9 hPa | 0 mm | - | - | - |
| 1777251891 | 16.67° C | 69% | 1018 hPa | 0 mm | - | - | - |
| 1777250990 | 16.67° C | 69% | 1018 hPa | 0 mm | - | - | - |
| 1777250090 | 16.67° C | 69% | 1018.2 hPa | 0 mm | - | - | - |
| 1777249189 | 16.67° C | 69% | 1018.4 hPa | 0 mm | - | - | - |
| 1777248288 | 16.67° C | 68% | 1018.5 hPa | 0 mm | - | - | - |
| 1777247387 | 17.22° C | 66% | 1018.6 hPa | 0 mm | - | - | - |
| 1777246486 | 17.22° C | 68% | 1018.7 hPa | 0 mm | - | - | - |
| 1777245585 | 16.67° C | 70% | 1018.7 hPa | 0 mm | - | - | - |
| 1777244684 | 17.22° C | 70% | 1018.6 hPa | 0 mm | - | - | - |
| 1777243784 | 17.22° C | 70% | 1018.6 hPa | 0 mm | - | - | - |
| 1777242883 | 17.22° C | 68% | 1018.6 hPa | 0 mm | - | - | - |
| 1777241982 | 17.22° C | 68% | 1018.7 hPa | 0 mm | - | - | - |
| 1777241081 | 16.67° C | 68% | 1018.8 hPa | 0 mm | - | - | - |
| 1777240180 | 17.22° C | 67% | 1018.7 hPa | 0 mm | - | - | - |
| 1777239279 | 18.33° C | 64% | 1018.7 hPa | 0 mm | - | - | - |
| 1777238379 | 18.33° C | 64% | 1018.8 hPa | 0 mm | - | - | - |
| 1777237478 | 18.33° C | 65% | 1018.8 hPa | 0 mm | - | - | - |
| 1777236577 | 18.33° C | 64% | 1018.8 hPa | 0 mm | - | - | - |
| 1777235676 | 18.33° C | 64% | 1018.7 hPa | 0 mm | - | - | - |
| 1777234775 | 18.89° C | 66% | 1018.6 hPa | 0 mm | - | - | - |
| 1777233874 | 18.89° C | 68% | 1018.6 hPa | 0 mm | - | - | - |
| 1777232973 | 18.89° C | 67% | 1018.5 hPa | 0 mm | - | - | - |
* Rain latest hour (hover to see other rain measurements)
** Current wind speed in m/s (hover to see current wind gust speed)